WetterOnline ( http://www.wetteronline.de )

Wetter aktuell Großer Arber

Aktuelles Wetter: Großer Arber (1446m)

6-stündlich | Neueste Meldungen
Ortszeit Temperatur Wetter
Di, 19.06. 20:00 12.8° C bedeckt
Di, 19.06. 14:00 12.0° C bedeckt
Di, 19.06. 8:00 10.4° C leicht bewölkt
Di, 19.06. 2:00 9.6° C wolkenlos
Mo, 18.06. 20:00 12.0° C bedeckt
Mo, 18.06. 14:00 14.0° C wolkig
Mo, 18.06. 8:00 9.7° C wolkig
Mo, 18.06. 2:00 9.3° C bedeckt
Ortszeit Temperatur Wetter
Mi, 20.06. 1:30 11.9° C bedeckt
Mi, 20.06. 1:20 11.9° C bedeckt
Mi, 20.06. 1:10 12.1° C bedeckt
Mi, 20.06. 1:00 12.0° C bedeckt
Mi, 20.06. 0:50 12.0° C bedeckt
Mi, 20.06. 0:40 12.1° C bedeckt
Mi, 20.06. 0:30 11.9° C bedeckt
Mi, 20.06. 0:00 12.0° C bedeckt
Di, 19.06. 23:30 12.2° C bedeckt
Di, 19.06. 23:00 12.2° C bedeckt
Di, 19.06. 22:30 12.2° C bewölkt
Ortszeit Relative Feuchte Sichtweite
Di, 19.06. 20:00 86% 10 km
Di, 19.06. 14:00 86% 10 km
Di, 19.06. 8:00 84% 10 km
Di, 19.06. 2:00 85% 10 km
Mo, 18.06. 20:00 76% 10 km
Mo, 18.06. 14:00 59% 10 km
Mo, 18.06. 8:00 83% 10 km
Mo, 18.06. 2:00 81% 10 km
Ortszeit Relative Feuchte Sichtweite
Mi, 20.06. 1:30 89% 10 km
Mi, 20.06. 1:20 89% -
Mi, 20.06. 1:10 89% -
Mi, 20.06. 1:00 89% 10 km
Mi, 20.06. 0:50 89% -
Mi, 20.06. 0:40 87% -
Mi, 20.06. 0:30 88% 10 km
Mi, 20.06. 0:00 86% 10 km
Di, 19.06. 23:30 88% 10 km
Di, 19.06. 23:00 90% 10 km
Di, 19.06. 22:30 91% 10 km
Ortszeit Niederschlagsmenge Niederschlagsart
Di, 19.06. 20:00 0.0 l/m2 in 12 Std. -
Di, 19.06. 14:00 0.0 l/m2 in 6 Std. -
Di, 19.06. 8:00 0.0 l/m2 in 12 Std. -
Di, 19.06. 2:00 0.0 l/m2 in 6 Std. -
Mo, 18.06. 20:00 0.0 l/m2 in 12 Std. -
Mo, 18.06. 14:00 0.0 l/m2 in 6 Std. -
Mo, 18.06. 8:00 0.1 l/m2 in 12 Std. -
Mo, 18.06. 2:00 0.0 l/m2 in 6 Std. -
Ortszeit Niederschlagsmenge Niederschlagsart
Mi, 20.06. 1:30 0.0 l/m2 in 1 Std. -
Mi, 20.06. 1:20 keine Meldung -
Mi, 20.06. 1:10 keine Meldung -
Mi, 20.06. 1:00 0.0 l/m2 in 1 Std. -
Mi, 20.06. 0:50 keine Meldung -
Mi, 20.06. 0:40 keine Meldung -
Mi, 20.06. 0:30 0.0 l/m2 in 1 Std. -
Mi, 20.06. 0:00 0.0 l/m2 in 1 Std. -
Di, 19.06. 23:30 0.0 l/m2 in 1 Std. -
Di, 19.06. 23:00 0.0 l/m2 in 1 Std. -
Di, 19.06. 22:30 0.0 l/m2 in 1 Std. -
Ortszeit Stärke Spitze Richtung
km/h Bft. km/h Grad Sektor
Di, 19.06. 20:00 13 3 26 300° NW
Di, 19.06. 14:00 14 3 40 260° W
Di, 19.06. 8:00 15 3 41 310° NW
Di, 19.06. 2:00 15 3 28 300° NW
Mo, 18.06. 20:00 14 3 32 280° W
Mo, 18.06. 14:00 19 3 35 270° W
Mo, 18.06. 8:00 18 3 32 300° NW
Mo, 18.06. 2:00 22 4 43 340° N
Ortszeit Stärke Spitze Richtung
km/h Bft. km/h Grad Sektor
Mi, 20.06. 1:30 7 2 11 30° NO
Mi, 20.06. 1:20 7 2 - 30° NO
Mi, 20.06. 1:10 7 2 - 40° NO
Mi, 20.06. 1:00 9 2 13 40° NO
Mi, 20.06. 0:50 9 2 - 40° NO
Mi, 20.06. 0:40 9 2 - 50° NO
Mi, 20.06. 0:30 11 2 13 40° NO
Mi, 20.06. 0:00 9 2 15 10° N
Di, 19.06. 23:30 11 2 14 350° N
Di, 19.06. 23:00 11 2 14 330° NW
Di, 19.06. 22:30 11 2 14 320° NW
Ortszeit Untergrenze Bedeckung Gattung
total tief tief mittel hoch
Di, 19.06. 20:00 810 m 8/8 8/8 - - -
Di, 19.06. 14:00 180 m 8/8 8/8 - - -
Di, 19.06. 8:00 150 m 4/8 - - - -
Di, 19.06. 2:00 - 0/8 0/8 - - -
Mo, 18.06. 20:00 570 m 8/8 8/8 - - -
Mo, 18.06. 14:00 660 m 8/8 8/8 - - -
Mo, 18.06. 8:00 3600 m 6/8 6/8 - - -
Mo, 18.06. 2:00 3000 m 8/8 8/8 - - -
Ortszeit Bedeckungsgrad in Achtel und Wolkenuntergrenze
Mi, 20.06. 1:30 8(870m)
Mi, 20.06. 1:20 8(870m)
Mi, 20.06. 1:10 8(870m)
Mi, 20.06. 1:00 8(870m)
Mi, 20.06. 0:50 8(870m)
Mi, 20.06. 0:40 8(900m)
Mi, 20.06. 0:30 8(870m)
Mi, 20.06. 0:00 8(810m)
Di, 19.06. 23:30 8(810m)
Di, 19.06. 23:00 8(750m)
Di, 19.06. 22:30 1(330m) 7(780m)
Ortszeit Stationsdruck (hPa) Tendenz (hPa in 3 Std.)
Di, 19.06. 20:00 864 - 0,1
Di, 19.06. 14:00 864 + 0,3
Di, 19.06. 8:00 863 + 0,8
Di, 19.06. 2:00 863 - 0,2
Mo, 18.06. 20:00 862 0,0
Mo, 18.06. 14:00 862 + 0,4
Mo, 18.06. 8:00 860 + 0,5
Mo, 18.06. 2:00 860 + 0,4
Ortszeit Stationsdruck (hPa) Tendenz (hPa in 3 Std.)
Mi, 20.06. 1:30 864 0,0
Mi, 20.06. 1:20 864 keine Meldung
Mi, 20.06. 1:10 864 keine Meldung
Mi, 20.06. 1:00 864 0,0
Mi, 20.06. 0:50 864 keine Meldung
Mi, 20.06. 0:40 864 keine Meldung
Mi, 20.06. 0:30 864 + 0,3
Mi, 20.06. 0:00 865 + 0,6
Di, 19.06. 23:30 865 + 0,5
Di, 19.06. 23:00 864 + 0,4
Di, 19.06. 22:30 864 + 0,5
Ortszeit Schneehöhe (cm)
Di, 19.06. 20:00 -
Di, 19.06. 14:00 -
Di, 19.06. 8:00 -
Di, 19.06. 2:00 -
Mo, 18.06. 20:00 -
Mo, 18.06. 14:00 -
Mo, 18.06. 8:00 -
Mo, 18.06. 2:00 -
Ortszeit Schneehöhe (cm)
Mi, 20.06. 1:30 -
Mi, 20.06. 1:20 -
Mi, 20.06. 1:10 -
Mi, 20.06. 1:00 -
Mi, 20.06. 0:50 -
Mi, 20.06. 0:40 -
Mi, 20.06. 0:30 -
Mi, 20.06. 0:00 -
Di, 19.06. 23:30 -
Di, 19.06. 23:00 -
Di, 19.06. 22:30 -
Link zu dieser Seite / Seite empfehlen

Das Wetter in ...